www.pogodaiklimat.ru

Погода и климат >> Архив погоды >> Австралия >> Северная территория >> Дерби


ПОГОДА в Дерби

  • Прогноз погоды в Дерби
  • Монитор погоды в Дерби

АРХИВ ПОГОДЫ в Дерби

Время (UTC), дата Ветер
(напр.,м/с)
 
Видим.   Явления Облачность Т
(С)
Тd
(С)
f
(%)
Тe
(С)
Тes
(С)
Комфортность P
(гПа)
Po
(гПа)
Тmin
(С)
Tmax
(С)
R
(мм)
R24
(мм)
S
(см)
13 13.03 ЮЗ 1 н/о н/о +28.4 +25.0 82 +41 +41 опасность
перегрева
1010.5 1009.7 +34.8
15 13.03 ЮВ 3 н/о н/о +27.6 +25.6 89 +41 +41 опасность
перегрева
1010.2 1009.4
16 13.03 Ю 3 н/о 3/0
[]
+27.2 +26.0 93 +41 +41 опасность
перегрева
1009.7 1008.9
18 13.03 Ю 3 н/о н/о +26.8 +25.0 90 +39 +39 очень
душно
1008.8 1008.0
19 13.03 Ю 3 н/о 4/0
[]
+26.6 +25.4 93 +39 +39 очень
душно
1008.6 1007.8
21 13.03 штиль 0 н/о н/о +26.3 +25.4 95 +38 +38 очень
душно
1009.6 1008.8
22 13.03 Ю 3 н/о н/о +26.1 +25.2 95 +38 +38 очень
душно
1010.3 1009.5
00 14.03 Ю 3 н/о н/о +29.9 +26.1 80 +45 +45 опасность
перегрева
1010.9 1010.1
01 14.03 Ю 4 н/о н/о +32.5 +24.8 64 +46 +46 опасность
перегрева
1010.7 1009.9 +26.2
03 14.03 Ю 3 н/о н/о +36.2 +22.7 46 +46 +46 опасность
перегрева
1009.3 1008.5
04 14.03 Ю 3 н/о 1/0
[]
+35.9 +22.8 47 +46 +62 опасность
перегрева
1008.3 1007.5
06 14.03 Ю 3 н/о н/о +37.4 +21.9 41 +45 +45 опасность
перегрева
1006.4 1005.6
07 14.03 ЮВ 2 н/о н/о +37.9 +21.5 39 +45 +45 опасность
перегрева
1005.8 1005.0
09 14.03 СЗ 5 н/о н/о +35.9 +23.8 50 +47 +47 опасность
перегрева
1005.7 1004.9
10 14.03 СЗ 5 н/о н/о +33.5 +24.9 61 +47 +47 опасность
перегрева
1006.3 1005.5
12 14.03 СЗ 4 н/о н/о +31.5 +25.1 69 +45 +45 опасность
перегрева
1007.0 1006.2
13 14.03 СЗ 4 н/о н/о +31.4 +25.5 71 +46 +46 опасность
перегрева
1007.6 1006.8 +38.9
15 14.03 З 4 н/о н/о +30.5 +26.9 81 +48 +48 опасность
перегрева
1007.4 1006.6
16 14.03 З 4 н/о 8/0
[]
+30.2 +27.0 83 +47 +47 опасность
перегрева
1006.9 1006.1
18 14.03 З 2 н/о н/о +29.4 +26.4 84 +45 +45 опасность
перегрева
1006.1 1005.3
19 14.03 ЮЗ 3 н/о 3/0
[]
+29.1 +25.9 83 +44 +44 опасность
перегрева
1005.5 1004.7
21 14.03 СВ 4 н/о н/о +29.2 +24.5 76 +41 +41 опасность
перегрева
1007.8 1007.0
22 14.03 СВ 6 н/о 10/0 2000 м
[]
+27.7 +21.0 67 +35 +35 очень
душно
1009.6 1008.8
00 15.03 СВ 7 н/о н/о +23.3 +21.2 88 +31 +31 очень
душно
1013.9 1013.1
01 15.03 С 3 н/о в посл. час дождь {туман} 10/0
[]
+23.3 +21.2 88 +31 +36 очень
душно
1012.5 1011.7 +23.2
03 15.03 З 8 н/о н/о +26.2 +22.3 79 +34 +34 очень
душно
1008.6 1007.8
04 15.03 З 3 н/о {осадки} 5/5 1500 м
[]
+28.7 +22.7 70 +38 +47 очень
душно
1004.8 1004.0
06 15.03 В 3 н/о н/о +31.6 +22.6 59 +41 +41 опасность
перегрева
1005.2 1004.4
07 15.03 СВ 3 н/о {туман} 8/0
[]
+31.8 +24.4 65 +44 +49 опасность
перегрева
1005.5 1004.7
09 15.03 СЗ 4 н/о н/о +30.6 +24.0 68 +42 +42 опасность
перегрева
1007.1 1006.3
10 15.03 СЗ 7 н/о 10/0
[]
+30.0 +25.1 75 +43 +43 опасность
перегрева
1008.5 1007.7
12 15.03 СЗ 7 н/о н/о +29.0 +25.4 81 +43 +43 опасность
перегрева
1008.8 1008.0
13 15.03 СЗ 7 н/о 5/5 600 м
[]
+28.7 +25.3 82 +42 +42 опасность
перегрева
1009.2 1008.4 +32.1
15 15.03 ЮЗ 2 н/о н/о +27.7 +25.7 89 +41 +41 опасность
перегрева
1009.3 1008.5
16 15.03 штиль 0 н/о 10/0
[]
+27.4 +25.4 89 +40 +40 очень
душно
1008.9 1008.1
18 15.03 ЮВ 3 н/о н/о +26.7 +26.0 96 +40 +40 очень
душно
1008.3 1007.5
19 15.03 Ю 4 н/о 10/0
[]
+26.8 +25.4 92 +39 +39 очень
душно
1008.6 1007.8
21 15.03 ЮВ 3 н/о н/о +26.0 +25.3 96 +38 +38 очень
душно
1009.2 1008.4
22 15.03 ЮВ 3 н/о {туман} н/о +25.9 +25.6 98 +38 +38 очень
душно
1010.1 1009.3
00 16.03 В 3 н/о н/о +29.5 +25.0 77 +43 +43 опасность
перегрева
1010.6 1009.8
01 16.03 В 3 н/о {туман} 9/0
[]
+30.5 +24.2 69 +42 +48 опасность
перегрева
1010.5 1009.7 +23.3
03 16.03 В 3 н/о н/о +33.3 +22.7 54 +43 +43 опасность
перегрева
1009.2 1008.4
04 16.03 ЮЗ 2 н/о 3/3 1000 м
[]
+34.9 +24.2 54 +47 +62 опасность
перегрева
1008.3 1007.5
06 16.03 З 5 н/о н/о +32.6 +23.8 60 +44 +44 опасность
перегрева
1006.8 1006.0
07 16.03 З 4 н/о н/о +33.0 +24.2 60 +45 +45 опасность
перегрева
1005.9 1005.1
09 16.03 СЗ 3 н/о н/о +33.1 +24.3 60 +45 +45 опасность
перегрева
1005.7 1004.9
10 16.03 СЗ 3 н/о н/о +31.1 +25.0 70 +45 +45 опасность
перегрева
1006.2 1005.4
12 16.03 З 3 н/о н/о +29.8 +25.5 78 +44 +44 опасность
перегрева
1008.7 1007.9
13 16.03 З 1 н/о 10/0
[]
+29.9 +26.1 80 +45 +45 опасность
перегрева
1009.3 1008.5 +35.5
15 16.03 ЮЗ 3 н/о н/о +29.1 +25.5 81 +43 +43 опасность
перегрева
1009.1 1008.3
16 16.03 ЮЗ 3 н/о 10/0
[]
+28.5 +25.7 85 +42 +42 опасность
перегрева
1008.8 1008.0
18 16.03 Ю 3 н/о н/о +27.9 +25.9 89 +42 +42 опасность
перегрева
1008.2 1007.4
19 16.03 СВ 8 н/о 10/10 300 м
[]
+27.8 +23.2 76 +37 +37 очень
душно
1009.3 1008.5
21 16.03 С 5 н/о н/о +23.7 +22.5 93 +31 +31 очень
душно
1010.2 1009.4
22 16.03 СЗ 2 н/о туман местами 10/0
[]
+24.4 +23.4 94 +33 +33 очень
душно
1010.3 1009.5
00 17.03 СЗ 3 н/о н/о +25.3 +22.2 83 +33 +33 очень
душно
1010.0 1009.2
01 17.03 Ю 2 н/о {туман} 4/0
[]
+26.8 +21.3 72 +34 +43 очень
душно
1009.6 1008.8 +23.2
03 17.03 ЮЗ 1 н/о н/о +31.0 +22.9 62 +41 +41 опасность
перегрева
1009.7 1008.9
04 17.03 СЗ 2 н/о 10/0
[]
+32.3 +23.5 60 +43 +54 опасность
перегрева
1009.5 1008.7
06 17.03 З 5 н/о н/о +34.0 +25.7 62 +49 +49 опасность
перегрева
1006.9 1006.1
07 17.03 СЗ 5 н/о н/о +33.6 +23.0 54 +44 +44 опасность
перегрева
1005.9 1005.1
09 17.03 С 7 н/о н/о +32.7 +23.3 58 +43 +43 опасность
перегрева
1007.2 1006.4
10 17.03 С 6 н/о туман местами 9/9 300 м
[]
+23.9 +23.7 99 +32 +32 очень
душно
1008.7 1007.9
12 17.03 ЮВ 5 н/о н/о +24.7 +24.2 97 +34 +34 очень
душно
1011.6 1010.8
13 17.03 ЮВ 5 н/о туман местами 10/0
[]
+24.4 +24.2 99 +34 +34 очень
душно
1011.1 1010.3 +34.8
15 17.03 Ю 3 н/о н/о +24.8 +24.6 99 +35 +35 очень
душно
1010.5 1009.7
16 17.03 ЮВ 3 н/о {туман} 10/0
[]
+24.5 +24.3 99 +34 +34 очень
душно
1010.0 1009.2
18 17.03 СВ 1 н/о н/о +24.7 +24.5 99 +35 +35 очень
душно
1008.8 1008.0
19 17.03 штиль 0 н/о {туман} 9/0
[]
+24.6 +24.4 99 +34 +34 очень
душно
1008.4 1007.6
21 17.03 В 3 н/о н/о +24.5 +24.5 100 +34 +34 очень
душно
1008.7 1007.9
22 17.03 ЮВ 3 н/о 10/0
[]
+24.3 +24.3 100 +34 +34 очень
душно
1009.1 1008.3
00 18.03 ЮВ 5 н/о н/о +27.4 +23.6 80 +37 +37 очень
душно
1010.1 1009.3
01 18.03 ЮВ 4 н/о н/о +29.8 +21.7 62 +38 +38 очень
душно
1010.1 1009.3 +23.7
03 18.03 ЮВ 5 н/о н/о +31.9 +22.3 57 +41 +41 опасность
перегрева
1008.7 1007.9
04 18.03 ЮВ 5 н/о н/о +32.9 +21.4 51 +41 +41 опасность
перегрева
1007.4 1006.6
06 18.03 ЮВ 5 н/о н/о +34.7 +21.4 46 +42 +42 опасность
перегрева
1005.4 1004.6
07 18.03 В 4 н/о 1/1 1500 м
[]
+35.5 +21.0 43 +43 +48 опасность
перегрева
1004.9 1004.1
09 18.03 В 3 н/о н/о +33.8 +22.6 52 +43 +43 опасность
перегрева
1004.7 1003.9
10 18.03 СВ 4 н/о 3/0
[]
+31.7 +23.0 60 +42 +42 опасность
перегрева
1005.9 1005.1
12 18.03 СВ 4 н/о н/о +29.6 +21.3 61 +37 +37 очень
душно
1007.6 1006.8
13 18.03 СВ 8 н/о 10/0 2000 м
[]
+28.0 +21.3 67 +35 +35 очень
душно
1009.1 1008.3 +36.1
15 18.03 С 5 н/о н/о +26.7 +24.0 85 +37 +37 очень
душно
1008.4 1007.6
16 18.03 С 4 н/о в посл. час дождь {туман} 9/0
[]
+25.9 +24.1 90 +36 +36 очень
душно
1007.7 1006.9
18 18.03 СВ 2 н/о н/о +26.0 +24.4 91 +36 +36 очень
душно
1006.6 1005.8
19 18.03 В 2 н/о {туман} 10/0
[]
+25.8 +24.0 90 +36 +36 очень
душно
1006.5 1005.7
21 18.03 В 3 н/о н/о +25.5 +24.6 95 +36 +36 очень
душно
1007.2 1006.4
22 18.03 ЮВ 3 н/о 10/0
[]
+25.4 +24.7 96 +36 +36 очень
душно
1007.9 1007.1
00 19.03 В 4 н/о н/о +27.7 +24.7 84 +39 +39 очень
душно
1009.5 1008.7
01 19.03 СВ 3 н/о 8/0
[]
+29.9 +24.3 72 +42 +47 опасность
перегрева
1008.8 1008.0 +25.3
03 19.03 СВ 4 н/о н/о +32.5 +24.3 62 +45 +45 опасность
перегрева
1008.0 1007.2
04 19.03 С 3 н/о в посл. час дождь {туман} 3/3 600 м
[]
+32.9 +23.8 59 +44 +57 опасность
перегрева
1007.1 1006.3
06 19.03 С 6 н/о н/о +33.5 +23.8 57 +45 +45 опасность
перегрева
1005.1 1004.3
07 19.03 С 5 н/о {туман} 9/9 1000 м
[]
+33.0 +24.2 60 +45 +46 опасность
перегрева
1005.1 1004.3
09 19.03 СЗ 5 н/о н/о +31.2 +25.8 73 +46 +46 опасность
перегрева
1005.3 1004.5
10 19.03 СЗ 6 н/о 9/0
[]
+30.4 +25.9 77 +45 +45 опасность
перегрева
1006.0 1005.2
12 19.03 С 4 н/о н/о +29.8 +24.2 72 +42 +42 опасность
перегрева
1008.0 1007.2
13 19.03 СВ 3 н/о 3/0
[]
+28.6 +22.3 69 +37 +37 очень
душно
1008.2 1007.4 +35.1
15 19.03 С 4 н/о н/о +27.3 +23.3 79 +37 +37 очень
душно
1007.4 1006.6
16 19.03 ЮВ 2 н/о н/о +26.8 +23.3 81 +36 +36 очень
душно
1007.1 1006.3
18 19.03 СВ 2 н/о н/о +26.4 +23.3 83 +36 +36 очень
душно
1005.9 1005.1
19 19.03 СВ 3 н/о н/о +26.6 +23.9 85 +37 +37 очень
душно
1005.9 1005.1
21 19.03 СВ 3 н/о н/о +26.0 +24.2 90 +36 +36 очень
душно
1007.0 1006.2
22 19.03 СВ 3 н/о н/о +26.2 +24.4 90 +37 +37 очень
душно
1007.2 1006.4
00 20.03 СВ 4 н/о н/о +29.9 +24.8 74 +43 +43 опасность
перегрева
1009.3 1008.5
01 20.03 С 4 н/о 9/9 600 м
[]
+30.9 +24.3 68 +43 +44 опасность
перегрева
1009.7 1008.9 +26.1
03 20.03 СЗ 5 н/о н/о +31.8 +25.2 68 +46 +46 опасность
перегрева
1008.7 1007.9
04 20.03 СЗ 6 н/о 4/4 1000 м
[]
+32.8 +25.3 65 +47 +52 опасность
перегрева
1007.9 1007.1
06 20.03 СЗ 5 н/о н/о +32.1 +25.4 68 +47 +47 опасность
перегрева
1006.7 1005.9
07 20.03 СЗ 8 н/о 5/5 1000 м
[]
+31.7 +25.3 69 +46 +47 опасность
перегрева
1006.4 1005.6
09 20.03 СЗ 7 н/о н/о +30.4 +25.5 75 +45 +45 опасность
перегрева
1006.7 1005.9
10 20.03 СЗ 6 н/о н/о +29.9 +24.5 73 +42 +42 опасность
перегрева
1007.6 1006.8
12 20.03 С 2 н/о н/о +29.1 +25.1 79 +42 +42 опасность
перегрева
1008.5 1007.7

 

Местоположение метеостанции Дерби (Северная территория, Австралия): широта -17.36 долгота 123.66 высота над уровнем моря 7 м.

В архиве по умолчанию представлена погода в Дерби за последнюю неделю. Архивные данные за месяц целиком и за предыдущие месяцы, начиная с января 2011 года, Вы можете получить, выбрав интересующий диапазон дат из раскрывающегося списка и нажав кнопку "Ввод!".


*Определитесь, кто Вы:
робот инопланетянин человек

Внимание! Время в таблицах - всемирное. Для получения местного времени необходимо прибавить поправку, которая равна 9.5 ч.

Смотрите также архив погоды в соседних городах и на ближайших метеорологических станциях:

Погода на Базе ВВС Curtin (Западная Австралия, Австралия) (30 км)
Погода в Робак Запад (Западная Австралия, Австралия) (154 км)
Погода в Бруме (Западная Австралия, Австралия) (165 км)
Погода на Острове Адель (Западная Австралия, Австралия) (213 км)
Погода в Фицрой-Кроссинге (Западная Австралия, Австралия) (221 км)
Погода на Острове Брауз (Западная Австралия, Австралия) (362 км)
Погода в Мандоре (Западная Австралия, Австралия) (397 км)
Погода в Холс Крик (Западная Австралия, Австралия) (435 км)
Погода в Трускотте (Западная Австралия, Австралия) (467 км)
Погода в Калумбуру (Западная Австралия, Австралия) (467 км)

Пояснения к столбцам:

Ветер - указаны скорость ветра в м/с - средняя за 10 мин, порывы в срок и между сроками (в фигурных скобках) и направление, откуда дует ветер: С - северный, СВ - северо-восточный, В - восточный, ЮВ - юго-восточный, Ю - южный, ЮЗ - юго-западный, З - западный, СЗ - северо-западный.
Видимость - горизонтальная дальность видимости в метрах или километрах. При видимости от 1 до 10 км при отсутствии осадков обычно наблюдается дымка, при ухудшении видимости до 1 км и менее - туман. В сухую погоду видимость может ухудшаться дымом, пылью или мглою.
Явления - указаны атмосферные явления, наблюдавшиеся в срок или в последний час перед сроком; фигурными скобками обозначены явления, наблюдавшиеся между сроками (за 1-3 часа до срока); квадратными скобками обозначены град или гололедные отложения с указанием их диаметра в мм.
Облачность - указаны через наклонную черту общая и нижняя облачность в баллах и высота нижней границы облаков в метрах; квадратными скобками обозначены формы облаков: Ci - перистые, Cs - перисто-слоистые, Cc - перисто-кучевые, Ac - высококучевые, As - высокослоистые, Sc - слоисто-кучевые, Ns - слоисто-дождевые, Cu - кучевые, Cb - кучево-дождевые. Подробнее классификацию облаков см. в Атласе облаков (PDF).
T - Температура воздуха - температура, измеренная на высоте 2 м над землей.
Td - Температура точки росы - температура, при понижении до которой содержащийся в воздухе водяной пар достигнет насыщения.
f - Относительная влажность воздуха - влажноcть воздуха, измеренная на высоте 2 м над землей.
Te - Эффективная температура - температура, которую ощущает одетый по сезону человек в тени. Характеристика душности погоды. При расчете учитывается влияние влажности воздуха и скорости ветра на теплоощущения человека.
Tes - Эффективная температура на солнце - температура, которую ощущает человек, с поправкой на солнечный нагрев. Характеристика знойности погоды. Зависит от высоты солнца над горизонтом, облачности и скорости ветра. Ночью, в пасмурную погоду, а также при ветре 12 м/с и более поправка равна нулю.
P - Атмосферное давление - приведенное к уровню моря атмосферное давление.
Po - Атмосферное давление - измеренное на уровне метеостанции атмосферное давление.
Tmin - Минимальная температура - минимум температуры воздуха на высоте 2 м над землей.
Tmax - Максимальная температура - максимум температуры воздуха на высоте 2 м над землей.
R - Количество осадков - Количество выпавших осадков за период времени, мм. При наведении курсора мыши на число - период времени, за который выпало указанное количество осадков.
R24 - Количество осадков - Количество выпавших осадков за 24 часа, мм.
S - Снежный покров - Высота снежного покрова, см. При наведении курсора мыши на число - состояние снежного покрова и степень покрытия местности в баллах.